Location: Chetisham
(52.4167°N, 0.2667°E)
Time: 04:35:12
(UTC+00:00)

Daily predictions for brighter satellites

Satellite Brightness Start Highest point End
(mag) Time Altitude Azimuth Time Altitude Azimuth Time Altitude Azimuth
Cosmos 1461 3.5 00:00:37 10° NW 00:03:30 47° NNW 00:03:30 47° NNW
Cosmos 1844 Rocket 4.0 00:01:03 10° NW 00:05:29 25° WSW 00:05:30 25° WSW
Cosmos 158 Rocket 3.9 00:05:02 65° WSW 00:05:34 71° WNW 00:10:38 10° NNE
Cosmos 1943 Rocket 3.6 00:00:36 10° NNW 00:05:47 35° NE 00:10:24 13° ESE
Lacrosse 4 Rocket 3.7 00:03:36 10° W 00:06:33 20° NNW 00:09:35 10° NNE
SL-16 R/B 3.1 00:06:04 25° WSW 00:08:54 43° NW 00:14:20 10° NNE
ATLAS 5 CENTAUR R/B 3.4 00:05:38 10° NW 00:09:40 34° NNE 00:14:33 10° E
Meteor 2-21 Rocket 4.4 00:10:44 55° SSW 00:12:08 79° W 00:18:25 10° N
RESURS DK-1 4.2 00:13:30 21° E 00:13:30 21° E 00:15:37 10° NE
Cosmos 972 Rocket 4.5 00:12:33 44° ESE 00:12:42 45° ESE 00:17:24 10° NNE
Cosmos 1867 3.5 00:09:49 10° NW 00:15:17 67° SW 00:15:26 66° SW
NOSS 2-2 (D) 3.8 00:13:22 10° NW 00:17:23 73° NE 00:18:12 58° ESE
USA 32 3.9 00:20:05 72° SSW 00:20:38 84° W 00:25:55 10° N
Cosmos 2344 4.0 00:19:25 10° NW 00:27:29 83° NE 00:38:25 10° SE
Aureole 3 Rocket 3.8 00:26:29 10° NNW 00:29:21 38° NW 00:29:21 38° NW
Tsikada Rocket 3.9 00:30:35 56° SSW 00:32:00 85° W 00:38:13 10° N
USA 215 4.4 00:28:39 10° ENE 00:33:53 25° SE 00:34:07 25° SE
Cosmos 1536 4.3 00:31:30 10° N 00:34:52 27° ENE 00:35:23 27° E
Lacrosse 5 2.2 00:35:37 28° W 00:38:16 63° NNW 00:43:22 10° ENE
NOSS 2-3 (C) 4.3 00:36:42 10° NW 00:42:08 79° SW 00:45:10 36° SE
ATLAS 3B R/B 4.1 00:35:26 10° NW 00:42:48 45° NNE 00:50:16 10° E
NOSS 0 Rocket 4.5 00:45:55 39° SE 00:47:09 44° ESE 00:52:57 10° NE
NOSS 2-3 (D) 4.3 00:41:47 10° NW 00:47:12 78° SW 00:50:20 35° SSE
Cosmos 1933 4.4 00:51:10 36° WNW 00:51:10 36° WNW 00:54:35 10° N
NOSS 3-4 (A) 3.6 00:51:31 35° WSW 00:53:56 63° NW 01:00:13 10° NE
NOSS 3-4 (C) 3.6 00:51:35 35° WSW 00:53:59 64° NW 01:00:16 10° NE
Cosmos 1766 Rocket 3.8 00:51:56 10° NNW 00:55:54 56° WNW 00:55:54 56° WNW
Gbstr 26 Del rocket 3.3 00:57:33 56° ESE 00:57:33 56° ESE 01:00:52 10° E
H-2A R/B 3.2 00:53:26 10° N 00:57:12 31° WNW 00:57:40 31° WNW
Cosmos 2369 Rocket 4.3 00:53:51 10° NNW 00:58:29 25° NE 01:03:04 10° E
Cosmos 2237 Rocket 3.0 00:59:39 34° SE 01:00:52 38° ESE 01:06:06 10° NE
IDEFIX/ARIANE 42P 4.0 00:57:32 10° NNE 01:02:03 29° E 01:03:55 23° SE
Cosmos 1980 4.3 01:02:35 37° SE 01:03:48 42° ESE 01:09:06 10° NE
NOSS 2-2 (C) 3.9 01:00:58 10° NW 01:04:40 57° WSW 01:04:40 57° WSW
CZ-2D R/B 3.7 01:03:23 10° NE 01:07:54 26° E 01:10:23 19° SE
Cosmos 1634 Rocket 4.4 01:02:00 10° NNW 01:08:04 49° W 01:09:31 41° SW
USA 267 3.2 01:04:36 10° ESE 01:11:08 85° NNE 01:17:42 10° WNW
Cosmos 44 Rocket 4.2 01:09:34 31° W 01:11:41 48° NW 01:16:39 10° NE
Cosmos 2360 Rocket 3.6 01:10:54 19° W 01:14:05 32° NW 01:19:08 10° NNE
COSMOS 2428 2.6 01:13:37 51° SW 01:15:07 83° WNW 01:20:52 10° NNE
Cosmos 1743 Rocket 4.3 01:11:46 10° N 01:15:57 47° ENE 01:17:16 35° ESE
Meteor 2-6 Rocket 4.2 01:15:50 49° SSW 01:17:32 87° WNW 01:23:26 10° NNE
Cosmos 2180 Rocket 4.5 01:11:26 10° NNW 01:17:49 77° W 01:19:58 44° S
Cosmos 1726 2.7 01:15:33 10° N 01:17:56 46° N 01:17:56 46° N
Resurs 1-4 Rocket 3.3 01:15:14 10° NNE 01:20:00 33° E 01:22:17 23° SE
Helios 1A Rocket 3.9 01:22:22 34° WNW 01:22:22 34° WNW 01:25:20 10° NNW
Cosmos 2322 3.9 01:21:01 41° WSW 01:22:53 63° NW 01:28:36 10° NNE
Cosmos 2219 Rocket 3.0 01:23:12 28° W 01:25:33 42° NW 01:30:53 10° NNE
IRIDIUM 104 4.2 01:20:20 10° N 01:25:34 82° W 01:26:54 52° S
Cosmos 1743 4.1 01:22:58 10° NNW 01:25:19 27° WNW 01:25:19 27° WNW
Cosmos 2221 3.3 01:26:50 37° W 01:27:06 37° WNW 01:31:07 10° N
Nimbus 7 Rocket 4.5 01:23:11 10° NNE 01:29:00 66° WNW 01:30:59 41° SW
Cosmos 2322 Rocket 4.1 01:26:24 10° W 01:30:46 23° NW 01:35:13 10° NNE
Cosmos 2278 Rocket 2.4 01:26:16 10° NW 01:31:43 49° WSW 01:32:30 45° SW
IRIDIUM 114 4.3 01:29:30 10° N 01:34:43 70° W 01:36:02 49° SSW
USA 290 4.0 01:35:28 10° N 01:38:26 31° NE 01:40:17 18° ESE
Meteor 2-10 4.2 01:35:28 10° NNW 01:41:12 82° ENE 01:44:15 29° SSE
Cosmos 1420 Rocket 4.0 01:35:56 10° NNW 01:41:15 86° ENE 01:44:11 27° SSE
Cosmos 2333 Rocket 3.8 01:38:16 14° W 01:42:06 27° NW 01:46:52 10° NNE
IRIDIUM 103 4.4 01:38:42 10° N 01:43:51 59° W 01:45:09 45° SW
ADEOS II 3.4 01:39:32 10° NNE 01:44:18 34° E 01:47:24 19° SSE
Cosmos 1680 Rocket 4.1 01:42:34 33° SSE 01:44:32 50° ESE 01:49:40 10° NNE
Cosmos 1538 Rocket 4.2 01:46:20 41° WSW 01:48:04 63° WNW 01:53:21 10° NNE
RESURS DK-1 2.8 01:49:06 42° W 01:49:51 48° NW 01:53:50 10° NNE
Cosmos 1943 Rocket 2.2 01:44:17 10° NW 01:49:51 58° WSW 01:51:51 38° S
Meteor 1-28 Rocket 4.4 01:49:06 19° SE 01:51:14 38° ENE 01:54:39 10° N
ATLAS 2AS CENTAUR R/B 3.4 01:49:36 28° S 01:53:10 46° ESE 01:59:54 10° NE
Nadezhda 4 Rocket 3.9 01:50:49 37° SSW 01:53:25 81° W 01:59:35 10° N
ATLAS 5 CENTAUR R/B 1.8 01:49:13 10° NW 01:53:58 76° SW 01:59:52 10° SE
Cosmos 1408 Rocket 3.9 01:50:31 10° NNW 01:54:40 45° W 01:54:59 44° WSW
Cosmos 2056 Rocket 3.5 01:49:29 10° NNW 01:54:56 87° WSW 01:58:37 21° SSE
SL-16 R/B 3.4 01:54:58 21° SSE 01:57:59 34° ESE 02:03:03 10° NE
MOZ.5/SAFIR/RUBIN 5/SL-8 4.2 01:59:23 39° WSW 02:00:00 41° W 02:04:30 10° NNW
Sich 1 3.0 01:56:28 10° NNW 02:00:40 62° W 02:01:28 51° SW
GP-B 3.3 01:57:33 10° N 02:01:58 66° E 02:03:57 31° SSE
Cosmos 1340 Rocket 3.7 02:01:32 28° SE 02:03:02 41° E 02:06:46 10° NNE
CZ-2C R/B 2.6 02:00:14 24° SSE 02:03:33 89° W 02:08:52 10° NNW
Meteor 1-27 Rocket 3.7 02:01:01 34° S 02:03:39 86° E 02:09:17 10° NNE
Cosmos 1624 Rocket 3.9 01:59:39 10° NNW 02:04:53 76° WSW 02:08:03 24° SSE
Cosmos 1842 Rocket 4.4 02:04:37 32° W 02:05:33 36° WNW 02:09:42 10° N
GEOS 3 Rocket 3.5 02:00:41 10° SE 02:06:02 79° SW 02:11:22 10° NW
Okean 1 3.1 02:05:34 57° SW 02:06:08 67° WNW 02:09:56 10° N
ALOS 3.9 02:02:41 10° NE 02:06:40 27° E 02:10:18 12° SSE
SL-16 R/B 2.8 02:01:19 10° SSE 02:07:28 72° ENE 02:13:43 10° NNW
NOSS 3-1 (A) 4.1 02:02:29 10° NW 02:09:27 80° NE 02:18:04 10° SE
NPP 3.6 02:04:09 10° NNE 02:09:35 90° E 02:12:10 33° SSW
Cosmos 1340 2.8 02:06:13 10° N 02:09:38 61° ENE 02:10:59 32° SE
Cosmos 1536 3.8 02:07:28 10° NNW 02:10:40 30° W 02:10:40 30° W
Cosmos 1805 3.1 02:08:12 10° N 02:11:56 77° E 02:13:21 36° SSE
Cosmos 1733 3.1 02:09:46 10° NNW 02:13:18 55° W 02:13:33 54° WSW
Cosmos 1500 Rocket 4.1 02:11:26 10° NNW 02:15:33 38° W 02:16:14 36° WSW
H-2A R/B 3.5 02:12:30 10° N 02:16:32 60° WNW 02:17:40 42° SW
Cosmos 1805 Rocket 3.9 02:13:11 10° NNW 02:17:18 43° W 02:18:06 38° WSW
USA 215 3.3 02:11:11 10° ENE 02:17:44 68° SSE 02:21:28 27° SW
Intercosmos 25 Rocket 4.2 02:15:05 10° N 02:18:51 60° ENE 02:24:32 10° SSE
COSMOS 2441 4.5 02:16:53 10° NNE 02:21:47 72° ESE 02:24:30 26° S
Lacrosse 5 2.7 02:16:48 10° WNW 02:21:48 51° N 02:26:49 10° E
Cosmos 1666 Rocket 3.6 02:17:37 10° N 02:22:06 81° ENE 02:25:08 20° SSE
Cosmos 1553 Rocket 4.2 02:16:41 10° N 02:22:57 72° ENE 02:29:05 10° SSE
Cosmos 923 Rocket 4.1 02:20:52 33° SW 02:23:15 69° WNW 02:28:35 10° NNE
Meteor 1-11 Rocket 4.4 02:18:17 10° NNW 02:23:18 36° W 02:25:03 29° SW
NOSS 3-1 (C) 4.0 02:20:19 10° NW 02:27:21 61° SW 02:35:55 10° SSE
NOSS 0 Rocket 4.5 02:29:53 22° WSW 02:33:36 49° NW 02:39:35 10° NNE
Kosmos-1783 3.7 02:34:30 32° NNE 02:34:30 32° NNE 02:36:04 10° NE
ATLAS 3B R/B 3.0 02:26:32 10° NW 02:34:23 87° SW 02:42:13 10° SE
MSX 3.9 02:29:20 10° NNE 02:35:07 71° WNW 02:38:34 25° SSW
Cosmos 1371 Rocket 4.4 02:32:15 10° NW 02:37:12 43° WSW 02:39:56 24° SSW
Cosmos 1656 Rocket 3.5 02:33:24 10° NNW 02:38:51 80° WSW 02:44:16 10° SSE
Cosmos 2026 Rocket 4.1 02:37:39 23° SSW 02:41:46 69° WNW 02:48:11 10° N
IDEFIX/ARIANE 42P 2.9 02:36:47 10° N 02:41:50 52° WNW 02:44:41 25° SW
Cosmos 2369 Rocket 2.1 02:37:37 10° NNW 02:43:16 90° NE 02:48:52 10° SSE
Gbstr 26 Del rocket 2.7 02:39:46 16° W 02:43:16 78° S 02:47:07 10° ESE
USA 308 2.5 02:42:30 33° WSW 02:44:03 80° SSE 02:47:59 10° ENE
Cosmos 1328 Rocket 3.7 02:41:11 20° S 02:44:11 74° E 02:48:38 10° NNE
Cosmos 1626 2.5 02:42:31 21° SSE 02:44:28 50° E 02:47:41 10° NNE
Cosmos 2237 Rocket 2.7 02:41:27 22° WSW 02:44:51 48° NW 02:50:24 10° NNE
Cosmos 1092 Rocket 4.1 02:42:40 23° SSW 02:46:38 64° WNW 02:52:48 10° N
Cosmos 1980 4.4 02:44:24 21° WSW 02:47:53 44° NW 02:53:19 10° NNE
CZ-2C R/B 3.1 02:42:38 10° NNE 02:47:56 84° WNW 02:51:58 19° SSW
CZ-2D R/B 2.3 02:42:58 10° N 02:48:16 60° WNW 02:51:41 23° SW
Cosmos 1975 2.9 02:44:42 10° NNW 02:48:28 52° W 02:50:23 26° SSW
Cosmos 1151 Rocket 3.4 02:47:21 27° SW 02:49:19 47° WNW 02:53:33 10° N
Cosmos 921 Rocket 3.0 02:48:29 26° SSW 02:50:51 76° WNW 02:55:17 10° NNE
Cosmos 1633 Rocket 3.0 02:47:23 10° NNW 02:51:43 64° W 02:55:02 17° S
Cosmos 2297 3.7 02:46:09 10° NW 02:51:51 64° WSW 02:57:31 10° SSE
SAR-Lupe-1 4.1 02:48:18 10° NNE 02:51:56 82° ESE 02:54:03 23° S
AQUA 3.8 02:48:36 10° NNE 02:53:21 84° WNW 02:56:42 20° SSW
USA 267 3.5 02:48:23 10° SSE 02:54:33 44° SW 03:00:45 10° WNW
SAR-Lupe-4 3.5 02:52:33 10° NNE 02:56:07 85° WNW 02:58:13 23° SSW
Cosmos 44 4.2 02:52:46 10° NW 02:57:47 52° NE 03:02:27 10° ESE
Resurs 1-4 Rocket 2.6 02:54:54 10° N 02:59:58 47° WNW 03:03:21 20° SW
COSMOS 2428 4.4 02:55:40 10° W 03:00:14 24° NW 03:04:49 10° NNE
Cosmos 1766 3.0 02:59:32 10° NNW 03:03:15 85° W 03:06:56 10° S
Cosmos 2112 Rocket 4.4 03:00:09 21° SW 03:03:38 53° WNW 03:08:54 10° NNE
Cosmos 494 Rocket 4.0 03:02:00 17° SSW 03:05:58 84° ESE 03:11:08 10° NNE
Meteor 2-4 Rocket 3.7 03:04:17 17° SSW 03:08:36 68° WNW 03:14:17 10° N
Iridium 51 4.4 03:05:18 10° S 03:08:36 60° E 03:12:02 10° N
Cosmos 1943 4.3 03:04:37 10° S 03:09:53 40° ESE 03:15:09 10° NE
FENGYUN 3A 3.8 03:04:37 10° N 03:10:00 65° WNW 03:14:21 16° SSW
Cosmos 2219 Rocket 4.4 03:07:45 10° WNW 03:11:04 16° NNW 03:14:24 10° NNE
USA 290 3.5 03:10:11 10° NW 03:12:45 22° WSW 03:13:02 22° WSW
Cosmos 2263 4.1 03:07:15 10° NNW 03:12:53 75° WSW 03:18:32 10° SSE
Cosmos 1048 Rocket 4.1 03:09:34 13° SSW 03:14:16 75° ESE 03:19:30 10° NNE
UNK 3.9 03:10:40 10° S 03:15:08 52° W 03:19:41 10° NNW
CZ-2C R/B 3.5 03:14:50 10° NNE 03:19:50 47° E 03:24:45 10° S
IRAS Rocket 4.4 03:14:36 10° NNE 03:20:10 63° WNW 03:25:04 13° SW
Meteor 2-12 Rocket 4.4 03:16:17 11° SSW 03:22:12 73° WNW 03:28:19 10° N
ADEOS II 2.6 03:19:05 10° N 03:24:05 45° WNW 03:28:17 14° SW
Meteor 1-28 Rocket 4.5 03:23:28 17° WSW 03:24:49 21° W 03:27:41 10° NW
EO 1 Delta rocket 3.9 03:20:55 10° N 03:25:30 64° WNW 03:30:28 10° SSW
Cosmos 1302 Rocket 4.1 03:26:10 10° NNW 03:31:25 82° ENE 03:36:36 10° SSE
IRS-1D 4.4 03:27:04 10° NNE 03:32:07 51° E 03:37:12 10° S
Cosmos 1707 3.3 03:28:42 10° S 03:32:17 55° E 03:35:55 10° NNE
Cosmos 1943 Rocket 4.0 03:31:08 10° W 03:32:24 11° W 03:33:18 10° WSW
CZ-4 R/B 3.8 03:28:25 10° NNE 03:33:10 84° ESE 03:37:48 10° SSW
Cosmos 1110 Rocket 4.3 03:29:46 10° NW 03:34:49 47° WSW 03:39:52 10° S
Cosmos 1842 3.2 03:32:51 10° S 03:36:36 83° E 03:40:22 10° NNE
ATLAS 5 CENTAUR R/B 3.4 03:34:03 10° WNW 03:37:32 18° WSW 03:41:26 10° SSW
YAOGAN 6 3.2 03:34:24 10° NNE 03:37:38 49° E 03:40:52 10° S
Cosmos 1340 Rocket 4.3 03:36:46 13° WSW 03:39:19 22° WNW 03:42:29 10° N
Cosmos 2266 Rocket 3.9 03:33:54 10° SSW 03:39:57 82° W 03:46:03 10° N
S3M 4.1 03:34:36 10° NNW 03:40:42 62° W 03:46:51 10° S
SL-16 R/B 2.6 03:36:50 12° SW 03:41:55 53° NW 03:47:29 10° NNE
Cosmos 1452 Rocket 4.0 03:38:20 10° NW 03:43:12 39° WSW 03:48:02 10° S
SL-08 ROCKET BODY 4.4 03:37:32 10° S 03:43:32 87° WNW 03:49:40 10° N
ATLAS 2AS CENTAUR R/B 3.1 03:37:01 11° WSW 03:44:01 63° NW 03:51:01 10° NE
ALOS 2.7 03:39:39 10° N 03:44:05 45° WNW 03:48:29 10° SW
CZ-2C R/B 4.2 03:41:42 11° WSW 03:44:33 16° W 03:47:50 10° NW
Cosmos 1515 Rocket 3.7 03:40:52 10° SSW 03:45:15 59° WNW 03:49:39 10° N
Cosmos 1869 Rocket 3.5 03:41:37 10° NNW 03:45:58 87° W 03:50:17 10° S
Cosmos 1470 Rocket 4.5 03:43:10 10° NNW 03:47:02 30° W 03:50:55 10° SSW
Envisat 3.0 03:43:45 10° NNE 03:48:52 84° WNW 03:53:56 10° SSW
SL-16 R/B 3.5 03:46:33 10° SSW 03:51:38 26° W 03:56:46 10° NW
USA 215 3.6 03:54:18 10° ENE 04:00:48 69° NNW 04:07:18 10° W
Meteor 1-22 Rocket 4.2 03:58:03 10° NNW 04:03:41 86° W 04:09:03 10° S
METEOR-M 4.2 03:59:23 10° N 04:04:41 65° WNW 04:09:57 10° SSW
Cosmos 2228 Rocket 4.2 04:00:40 10° SSE 04:04:52 48° E 04:09:06 10° NNE
Lacrosse 5 2.0 04:00:01 10° WNW 04:05:11 88° NE 04:10:19 10° ESE
Cosmos 1674 2.9 04:02:54 10° SSW 04:06:10 41° WNW 04:09:29 10° N
Meteor 1-13 Rocket 4.4 04:03:35 10° SSW 04:09:24 87° WNW 04:15:22 10° NNE
USA 229 DEB 4.0 04:03:02 10° NW 04:10:17 63° SW 04:18:11 10° SSE
USA 229 4.0 04:03:08 10° NW 04:10:23 64° SW 04:18:15 10° SSE
